+ View the NASA Portal
+ Center for Near-Earth Object Studies
IMPORTANT:
The SSD Announcement email list is now available. Major changes are coming in the near future, including possible hostname and/or URL changes. To be notified of such changes, subscribe to this email list.
Please visit
this page
for more details.
Don't show this message again
JPL Small-Body Database Browser
Search:
[
help
]
214607 (2006 RF22)
Classification:
Mars-crossing Asteroid
SPK-ID:
2214607
[
Ephemeris
|
Orbit Diagram
|
Orbital Elements
|
Mission Design
|
Physical Parameters
|
Discovery Circumstances
]
[ show orbit diagram ]
Orbital Elements at Epoch 2458600.5 (2019-Apr-27.0) TDB
Reference:
JPL 20
(heliocentric ecliptic J2000)
Element
Value
Uncertainty (1-sigma)
Units
e
.3072698434586689
4.8941e-08
a
2.364408974235927
1.5427e-08
au
q
1.637897398850182
1.1516e-07
au
i
5.408968311799561
6.529e-06
deg
node
38.72971031728693
5.5258e-05
deg
peri
264.9653413877804
5.6909e-05
deg
M
209.5861893925126
1.8704e-05
deg
t
p
2459155.339713221670
(2020-Nov-01.83971322)
7.2213e-05
TDB
period
1327.951841344137
3.64
1.2997e-05
3.558e-08
d
yr
n
.2710941683213544
2.6533e-09
deg/d
Q
3.090920549621672
2.0168e-08
au
Orbit Determination Parameters
# obs. used (total)
438
data-arc span
7608 days (20.83 yr)
first obs. used
1998-03-29
last obs. used
2019-01-26
planetary ephem.
DE431
SB-pert. ephem.
SB431-N16
condition code
0
norm. resid. RMS
.54668
source
ORB
producer
Otto Matic
solution date
2019-Jul-14 07:45:16
Additional Information
Earth MOID
= .633561 au
Jupiter MOID
= 2.19501 au
T_jup
= 3.478
[ show covariance matrix ]
[
Ephemeris
|
Orbit Diagram
|
Orbital Elements
|
Mission Design
|
Physical Parameters
|
Discovery Circumstances
]
Physical Parameter Table
Parameter
Symbol
Value
Units
Sigma
Reference
Notes
absolute magnitude
H
16.1
n/a
MPO268202
214607 (2006 RF22)
Discovered 2006-Sep-15 by NEAT at Palomar
Reference:
20090509/Numbers.arc
Last Updated:
2009-05-11
[
Ephemeris
|
Orbit Diagram
|
Orbital Elements
|
Mission Design
|
Physical Parameters
|
Discovery Circumstances
]
2019-Dec-09 23:49 UT
(server date/time)
Site Manager:
Ryan S. Park
Webmaster
:
Alan B. Chamberlin